Back to catalog

FENGYUN 1C DEB

AliveSSO
NORAD 30690·DEBRIS·🇨🇳 China

Launched May 10, 1999 from Taiyuan Satellite Launch Center

Loading…

Next Passes (next 24 hours)

TLE

FreshSource: Space-Track

Epoch: Sep 14, 2026, 13:09 UTC

1 30690U 99025AQY 26257.54830312  .00001281  00000-0  80632-3 0  9995
2 30690  99.1680 194.8604 0104630  34.3416  19.2765 14.03520024995756

Track FENGYUN 1C DEB in real time with AllMySat

Download on the App Store